Погода в Шибково

Россия / Новосибирская область     54°29′34″N   83°18′26″E
темп.,
°C
ветер,
м/с
пор.,
м/с
влажн.,
%
обл.,
%
осадки,
мм/ч
давл.,
гПа
погр.,
м
20 апреля, вт
вт2001:00−7ссз5658100 0.1 10261162
04:00−7ссз355841 0.0 10261010
07:00−7ссз455951 0.1 10271009
10:00−6сз4551100 0.1 10281428
13:00−4сз4547100 0.1 10271492
16:00−2зсз4542100 0.0 10271630
19:00−2зсз454361 0.0 10261440
22:00−4з24615 0.0 1027105
21 апреля, ср
ср2101:00−4юз2364100 0.0 1026134
04:00−4ююз4763100 0.0 1024410
07:00−4ююз4865100 0.0 1024422
10:00−2ююз6750100 0.0 10231095
13:00+1ююз5646100 0.0 10221456
16:00+1ююз3453100 0.0 10231254
19:00−1юв3479100 0.3 1025515
22:00−1всв367399 0.0 1027201
22 апреля, чт
чт2201:00−2св468299 0.0 1029352
04:00−2ссв368986 0.1 1032261
07:00−3ссв38795 0.1 1035379
10:000св68505 0.0 10371231
13:00+3св7843100 0.0 10382117
16:00+3св7842100 0.0 10392019
19:00+2ссв685416 0.0 10411411
22:00−1ссв410765 0.0 1044282
23 апреля, пт
пт2301:00−2ссв410825 0.0 1044369
04:00−2ссв410855 0.0 1044367
07:00−2ссв410855 0.0 1044451
10:00+2св69655 0.0 1044965
13:00+5св7945100 0.0 10432041
16:00+6св7843100 0.0 10412094
19:00+5св585589 0.1 10411339
22:00+1ссв410755 0.1 1042260
24 апреля, сб
сб2401:000ссв410825 0.1 1041290
04:00−1ссв39845 0.0 1040241
07:00−1с388434 0.0 1039277
10:00+3ссв5767100 0.0 1038689
13:00+5ссв5654100 0.1 10361567
16:00+6ссв5653100 0.2 10351449
19:00+5ссв4556100 0.3 1034945
22:00+3ссв2371100 0.1 103440